Location: Beaver Brook Station
(42.3793°N, 71.2203°W)
Time: 07:31:06
(UTC+00:00)

Cosmos 2297 Rocket - Pass Details

Date: 29 October 2020
Orbit: 838 x 845 km, 71.0° (Epoch: 23 November)

Event Time Altitude Azimuth Distance (km) Brightness Sun altitude
Rises 22:37:00 0° 335° (NNW) 3,413 5.6 -10.8°
Reaches altitude 10° 22:39:28 10° 336° (NNW) 2,473 4.8 -11.3°
Maximum altitude 22:45:10 86° 66° (ENE) 851 2.2 -12.3°
Drops below altitude 10° 22:50:49 10° 156° (SSE) 2,455 4.4 -13.3°
Sets 22:53:15 0° 157° (SSE) 3,385 5.2 -13.8°
